Race Coverage Navigation

TS # 8 / Campo Verde, AZ  2019

 


TS STATS
TS Distance 54.47 
Total Distance 500.01 
Miles To Go 2570.27 
TS Climbing 487 
Total Climbing
TS  Elevation
TS  Net Elevation 776 
Map Filename Open Map 
Directions Filename  
Latitude 34.73 
Longitude -112.01 
Google Map  TimeStation Map 


TS Arrival Data
Arr Ord  #/Name Arrival DT TS Dst Avg This TS Avg Overall
 1 R404 - Team Viasat - Carlsbad  06/12/2019 14:01 54.47  21.93  21.72 
 2 R403 - Team Viasat-Denver  06/12/2019 15:23 54.47  20.43  20.52 
 3 R401 - San Diego Sports Medicine/Zoca  06/12/2019 17:46 54.47  17.38  18.72 
 4 377 - Christoph Strasser  06/12/2019 18:34 54.47  18.57  19.29 
 5 R200 - EY Legacy Builders 2019  06/12/2019 19:01 54.47  16.1  17.98 
 6 R400 - HTX Velo Femme  06/12/2019 19:05 54.47  17.76  17.85 
 7 R205 - Team OB2  06/12/2019 19:08 54.47  17.29  17.86 
 8 279 - Marko Baloh  06/12/2019 20:39 54.47  17.02  17.85 
 9 R402 - SUWOS  06/12/2019 21:41 54.47  13.5  16.31 
 10 R202 - Laureus Alegra  06/12/2019 21:48 54.47  17.48  16.32 
 11 R201 - IN OUR PRIME  06/12/2019 22:33 54.47  13.73  15.94 
 12 612 - Markus K. Brandl  06/12/2019 23:18 54.47  16.51  16.13 
 13 617 - SOLO.kiwi (Craig Harper)  06/12/2019 23:25 54.47  16.76  16.03 
 14 609 - Jakob Olsen  06/12/2019 23:29 54.47  16.76  16.06 
 15 R124 - Andres Rodriguez  06/13/2019 0:11 54.47  12.38  15.21 
 16 349 - Mark Pattinson  06/13/2019 0:12 54.47  14.86  15.81 
 17 R111 - Jennifer Orr  06/13/2019 0:41 54.47  14.27  14.97 
 18 529 - Isa Pulver  06/13/2019 0:54 54.47  13.67  15.24 
 19 442 - Joe Barr  06/13/2019 2:00 54.47  13.85  14.93 
 20 R203 - Mike 'n' Jay Giretto con Amici  06/13/2019 2:19 54.47  7.95  14.22 
 21 623 - Ultra Paka Racing Team (Daniel Polman)  06/13/2019 2:23 54.47  12.97  14.61 
 22 R209 - Workhorses  06/13/2019 2:33 54.47  10.18  14.1 
 23 288 - Dave Haase  06/13/2019 2:48 54.47  12.02  14.63 
 24 329 - Peter Oyler  06/13/2019 3:09 54.47  14.4  14.47 
 25 603 - Alan Bradley  06/13/2019 3:28 54.47  12.24  14.25 
 26 622 - Thomas Odom-Team Kyle Pease Foundation  06/13/2019 4:46 54.47  14.59  13.66 
 27 620 - Team Jefferson (Allan Jefferson)  06/13/2019 4:48 54.47  11.43  13.66 
 28 161 - Seana Hogan  06/13/2019 5:19 54.47  13.13  13.45 
 29 604 - Chieko Ozawa  06/13/2019 5:35 54.47  10.41  13.32 
 30 615 - Philipp Amhof  06/13/2019 6:05 54.47  7.97  13.22 
 31 R106 - Damaceleste.com (Valentina Tanzi)  06/13/2019 6:25 54.47  13.18  12.79 
 32 R207 - We Might Make It!  06/13/2019 6:54 54.47  11  12.56 
 33 568 - Alexandra Meixner  06/13/2019 6:58 54.47  9.9  12.85 
 34 621 - Themsen Ultracycling (Jacob Themsen)  06/13/2019 7:24 54.47  12.43  12.75 
 35 R104 - Team everve Christian (Christian Beichel)  06/13/2019 7:43 54.47  9.05  12.44 
 36 416 - Leah Goldstein  06/13/2019 8:59 54.47  6.15  12.23 
 37 618 - GREGORY ROBINSON  06/13/2019 9:14 54.47  13.34  12.19 
 38 R120 - Team Next Step (Peter Pedersen)  06/13/2019 9:27 54.47  12.87  11.88 
 39 559 - Team Martin RAAM 2019 (Martin Bergmeister)  06/13/2019 9:45 54.47  7.15  12.1 
 40 611 - Marcelo Soares " MIXIRICA "  06/13/2019 10:22 54.47  11.43  11.89 
 41 594 - Mauerhofer Thomas  06/13/2019 10:29 54.47  5.38  11.88 
 42 R84 - James Jason Ingels  06/13/2019 10:32 54.47  8.6  11.65 
 43 539 - Kari Rouvinen  06/13/2019 10:42 54.47  12.1  11.83 
 44 R103 - Chris Davies  06/13/2019 10:51 54.47  11.8  11.54 
 45 608 - Elin Starup  06/13/2019 10:57 54.47  9.47  11.65 
 46 411 - Geoff Brunner  06/13/2019 11:02 54.47  8.17  11.77 
 47 367 - Daniela Genovesi  06/13/2019 11:10 54.47  8.81  11.61 
 48 R122 - Kirk Gentle  06/13/2019 11:10 54.47  5.83  11.41 
 49 510 - John C. Tarlton  06/13/2019 11:27 54.47  9.81  11.64 
 50 610 - Kabir Rachure  06/13/2019 11:37 54.47  9.18  11.55 
 51 R121 - Ironmae (Rosecler Costa)  06/13/2019 11:45 54.47  6.13  11.23 
 52 399 - Valerio Zamboni  06/13/2019 12:11 54.47  9.15  11.46 
 53 R115 - Kym Louie  06/13/2019 13:31 54.47  9.18  10.81 
 54 R105 - 2nd Chance Racing (Craig Johnson)  06/13/2019 13:39 54.47  9.93  10.83 
 55 R119 - Team BlueLine (Martha Hall)  06/13/2019 14:30 54.47  9.13  10.58 
 56 607 - Sabine Bird (Team Bean)  06/13/2019 14:50 54.47  10.44  10.68 
 57 R110 - James Golding  06/13/2019 14:51 54.47  10.15  10.55 
 58 R116 - Philippe May  06/13/2019 15:56 54.47  8.74  10.3 
 59 605 - Christian Echavarria  06/13/2019 16:09 54.47  12.06  10.46 
 60 527 - TALABARDON (Herve Talabardon)  06/13/2019 16:11 54.47  12.87  10.48 
 61 424 - Team i RON man Veterans supporting Veterans  06/13/2019 16:12 54.47  10.31  10.49 
 62 563 - Team Nico Ultracycling - In Fight against Cancer   06/13/2019 16:45 54.47  9.93  10.35 
 63 R117 - ROGIE (Roger Foote)  06/13/2019 16:47 54.47  10.41  10.12 
 64 R112 - John Hoopingarner  06/13/2019 17:01 54.47  9.15  10.09 
 65 603 - Alan Bradley  06/13/2019 17:15 54.47  12.24  14.25 
 66 R114 - Krishna Prakash  06/13/2019 18:11 54.47  9.53  9.85 
 67 R87 - Spoke Life Cycles / TRD (Lucas Spencer)  06/13/2019 20:32 54.47  7.73  9.44 
 68 491 - BOURREAU JACQUES  06/14/2019 3:10 54.47  9.93  8.52 
 69 T411 - team alpha - tischlerei groemmer  06/16/2019 13:32 54.47  22.7  22.54 
 70 T800 - Backstedt Racing Project 14  06/16/2019 13:34 54.47  24.03  22.64 
 71 T401 - Data Techniques powered by Networks Centre  06/16/2019 13:36 54.47  23.51  22.31 
 72 T404 - Gentlemen of speed  06/16/2019 14:24 54.47  20.68  21.58 
 73 T201 - EAT WELL  06/16/2019 15:00 54.47  19.69  20.85 
 74 T805 - Team Oceanside  06/16/2019 16:12 54.47  35.14  20.3 
 75 T407 - Julian Becker   06/16/2019 16:15 54.47  19.22  20.03 
 76 T412 - Team Aspect  06/16/2019 16:33 54.47  19.34  19.85 
 77 T200 - AIR RELAX GoPro TEAM BRASIL  06/16/2019 16:52 54.47  17.76  19.33 
 78 T807 - Team ZOE International  06/16/2019 17:03 54.47  20.55  19.65 
 79 T802 - Scorchers  06/16/2019 17:25 54.47  15.94  19.31 
 80 T804 - Team FSHD Skyland Trail  06/16/2019 17:29 54.47  18.89  19.28 
 81 T416 - Team Rotary Raams Polio  06/16/2019 17:39 54.47  18.36  19.07 
 82 T406 - Operation Walk Midwest  06/16/2019 17:43 54.47  18.68  18.9 
 83 T408 - Radeln-fuer-Kinder (Cycling-for-Kids)  06/16/2019 17:44 54.47  17.67  18.92 
 84 T400 - Cantastic4  06/16/2019 17:58 54.47  17.38  18.66 
 85 T202 - Integra Medical - BAA Racing  06/16/2019 18:06 54.47  17.29  18.47 
 86 T808 - Antonia's Friends 2019  06/16/2019 18:18 54.47  18.06  18.74 
 87 T418 - The Opportunists  06/16/2019 18:28 54.47  18.57  18.52 
 88 T403 - EKJ Denmark  06/16/2019 18:44 54.47  17.2  18.17 
 89 T206 - Project Linear Acceleration  06/16/2019 19:06 54.47  16.76  17.86 
 90 T410 - Soap-Aid  06/16/2019 19:26 54.47  14.59  17.79 
 91 T405 - High Rollers  06/16/2019 20:03 54.47  18.68  17.36 
 92 T803 - Team EndoPark  06/16/2019 20:11 54.47  17.76  17.45 
 93 T204 - Lucan CRC  06/16/2019 20:15 54.47  13.02  17.13 
 94 T415 - TEAM FIRE VELO 935  06/16/2019 20:30 54.47  14.99  17.19 
 95 T207 - Team Life Time  06/16/2019 20:56 54.47  14.4  16.77 
 96 T413 - TEAM BRASIL - SKIPPER  06/16/2019 21:27 54.47  15.49  16.63 
 97 T806 - Team SuperMarrow  06/16/2019 21:28 54.47  16.1  16.73 
 98 T417 - Team4RAAM 2019 powered by TGW Living Logistics  06/16/2019 21:37 54.47  18.57  16.57 
 99 T402 - EA/WFP RAAM Team  06/16/2019 21:47 54.47  16.18  16.35 
 100 T208 - Team Machine  06/16/2019 22:26 54.47  14.46  15.97 
 101 T801 - Mind Over Matter  06/16/2019 22:44 54.47  15.94  16.01 
 102 T205 - Prevent Breast Cancer powered by Endomag  06/16/2019 23:16 54.47  15.54 
 103 T203 - JPsDuo  06/17/2019 0:48 54.47  15.64  14.82 
 104 T414 - Brazil Nuts  06/17/2019 0:52 54.47  6.85  14.94 
 105 T409 - Serpentine Golden Girls  06/17/2019 1:11 54.47  14.09  14.76 
 106 T210 - Bike Wine Team  06/17/2019 1:58 54.47  17.2  14.36